Hourly Weather Cambridge

Today, 31 October, Saturday

Time Temperature Precipitation Wind Pressure Humidity
00:00 -2°C° 0 mm 1 mps 742 mmHg 78%
01:00 -2°C° 0 mm 1 mps 742 mmHg 78%
02:00 -2°C° 0 mm 1 mps 743 mmHg 77%
03:00 -2°C° 0 mm 1 mps 743 mmHg 77%
04:00 -2°C° 0 mm 1 mps 743 mmHg 76%
05:00 -2°C° 0 mm 1 mps 743 mmHg 77%
06:00 -2°C° 0 mm 1 mps 743 mmHg 77%
07:00 -2°C° 0 mm 1 mps 744 mmHg 78%
08:00 0°C° 0 mm 1 mps 744 mmHg 70%
09:00 +1°C° 0 mm 2 mps 744 mmHg 63%
10:00 +2°C° 0 mm 2 mps 744 mmHg 56%
11:00 +2°C° 0 mm 3 mps 743 mmHg 52%
12:00 +3°C° 0 mm 3 mps 743 mmHg 49%
13:00 +4°C° 0 mm 4 mps 742 mmHg 46%
14:00 +4°C° 0 mm 4 mps 741 mmHg 51%
15:00 +3°C° 0 mm 5 mps 741 mmHg 57%
16:00 +3°C° 0 mm 5 mps 740 mmHg 62%
17:00 +3°C° 0 mm 4 mps 739 mmHg 69%
18:00 0°C° 0 mm 4 mps 738 mmHg 75%
19:00 0°C° 0 mm 3 mps 737 mmHg 82%
20:00 0°C° 0 mm 4 mps 737 mmHg 82%
21:00 +1°C° 0 mm 4 mps 736 mmHg 83%
22:00 +1°C° 0 mm 5 mps 735 mmHg 83%
23:00 +2°C° 0 mm 5 mps 734 mmHg 82%

Tomorrow, 1 November, Sunday

Time Temperature Precipitation Wind Pressure Humidity
00:00 +3°C° 0 mm 6 mps 733 mmHg 81%
01:00 +3°C° 0 mm 6 mps 732 mmHg 80%
02:00 +4°C° 0 mm 6 mps 731 mmHg 80%
03:00 +4°C° 0 mm 7 mps 730 mmHg 80%
04:00 +4°C° 0 mm 7 mps 729 mmHg 80%
05:00 +5°C° 0.3 mm 7 mps 728 mmHg 83%
06:00 +5°C° 0.3 mm 8 mps 727 mmHg 86%
07:00 +6°C° 0.3 mm 8 mps 726 mmHg 89%
08:00 +5°C° 2.1 mm 9 mps 725 mmHg 90%
09:00 +3°C° 2.1 mm 9 mps 725 mmHg 91%
10:00 +2°C° 2.1 mm 9 mps 724 mmHg 92%
11:00 +1°C° 0.1 mm 10 mps 724 mmHg 83%
12:00 +1°C° 0.1 mm 10 mps 725 mmHg 74%
13:00 +1°C° 0.1 mm 10 mps 725 mmHg 64%
14:00 0°C° 0 mm 9 mps 725 mmHg 67%
15:00 -1°C° 0 mm 9 mps 726 mmHg 70%
16:00 -3°C° 0 mm 9 mps 726 mmHg 73%
17:00 -4°C° 0.1 mm 8 mps 726 mmHg 77%
18:00 -3°C° 0.1 mm 7 mps 726 mmHg 81%
19:00 -4°C° 0.1 mm 6 mps 726 mmHg 86%
20:00 -4°C° 0.2 mm 5 mps 726 mmHg 85%
21:00 -4°C° 0.2 mm 5 mps 726 mmHg 85%
22:00 -2°C° 0.2 mm 5 mps 726 mmHg 84%
23:00 -4°C° 0.1 mm 6 mps 726 mmHg 83%

Day after tomorrow, 2 November, Monday

Time Temperature Precipitation Wind Pressure Humidity
00:00 -5°C° 0.1 mm 8 mps 727 mmHg 82%
01:00 -5°C° 0.1 mm 10 mps 727 mmHg 80%
02:00 -5°C° 0 mm 10 mps 728 mmHg 79%
03:00 -7°C° 0 mm 10 mps 729 mmHg 77%
04:00 -8°C° 0 mm 10 mps 730 mmHg 75%
05:00 -8°C° 0 mm 10 mps 731 mmHg 75%
06:00 -9°C° 0 mm 9 mps 732 mmHg 74%
07:00 -8°C° 0 mm 8 mps 733 mmHg 73%
08:00 -7°C° 0 mm 8 mps 733 mmHg 68%
09:00 -5°C° 0 mm 8 mps 733 mmHg 64%
10:00 -4°C° 0 mm 8 mps 734 mmHg 60%
11:00 -2°C° 0 mm 8 mps 733 mmHg 60%
12:00 -1°C° 0 mm 7 mps 733 mmHg 61%
13:00 0°C° 0 mm 7 mps 733 mmHg 62%
14:00 0°C° 0 mm 8 mps 732 mmHg 63%
15:00 0°C° 0 mm 8 mps 731 mmHg 64%
16:00 0°C° 0 mm 8 mps 731 mmHg 66%
17:00 0°C° 0 mm 8 mps 730 mmHg 66%
18:00 0°C° 0 mm 8 mps 729 mmHg 65%
19:00 0°C° 0 mm 7 mps 729 mmHg 65%
20:00 0°C° 0 mm 7 mps 729 mmHg 68%
21:00 0°C° 0 mm 7 mps 729 mmHg 71%
22:00 0°C° 0 mm 8 mps 729 mmHg 74%
23:00 0°C° 0 mm 7 mps 729 mmHg 77%

3 November, Tuesday

Time Temperature Precipitation Wind Pressure Humidity
00:00 +1°C° 0 mm 6 mps 730 mmHg 79%
01:00 +1°C° 0 mm 6 mps 731 mmHg 81%
02:00 0°C° 0 mm 5 mps 731 mmHg 81%
03:00 -1°C° 0 mm 4 mps 732 mmHg 81%
04:00 -1°C° 0 mm 3 mps 733 mmHg 80%
05:00 -1°C° 0 mm 3 mps 734 mmHg 83%
06:00 -2°C° 0 mm 2 mps 734 mmHg 85%
07:00 -2°C° 0 mm 2 mps 735 mmHg 88%
08:00 -1°C° 0 mm 2 mps 736 mmHg 79%
09:00 +1°C° 0 mm 3 mps 737 mmHg 71%
10:00 +2°C° 0 mm 3 mps 738 mmHg 62%
11:00 +3°C° 0 mm 3 mps 738 mmHg 61%
12:00 +4°C° 0 mm 3 mps 738 mmHg 59%
13:00 +4°C° 0 mm 3 mps 738 mmHg 57%
14:00 +4°C° 0 mm 3 mps 738 mmHg 60%
15:00 +5°C° 0 mm 2 mps 738 mmHg 63%
16:00 +5°C° 0 mm 2 mps 739 mmHg 66%
17:00 +4°C° 0 mm 2 mps 739 mmHg 71%
18:00 +4°C° 0 mm 1 mps 739 mmHg 75%
19:00 +4°C° 0 mm 1 mps 739 mmHg 80%
20:00 +2°C° 0 mm 2 mps 739 mmHg 83%
21:00 +2°C° 0 mm 2 mps 739 mmHg 85%
22:00 +2°C° 0 mm 2 mps 739 mmHg 88%
23:00 +1°C° 0 mm 3 mps 739 mmHg 89%

4 November, Wednesday

Time Temperature Precipitation Wind Pressure Humidity
00:00 +1°C° 0 mm 3 mps 739 mmHg 90%
01:00 +1°C° 0 mm 3 mps 739 mmHg 91%
02:00 +1°C° 0 mm 4 mps 739 mmHg 92%
03:00 +1°C° 0 mm 4 mps 739 mmHg 92%
04:00 +3°C° 0 mm 4 mps 739 mmHg 92%
05:00 +3°C° 0 mm 5 mps 739 mmHg 92%
06:00 +3°C° 0 mm 5 mps 739 mmHg 92%
07:00 +3°C° 0 mm 5 mps 740 mmHg 91%
08:00 +5°C° 0 mm 6 mps 740 mmHg 86%
09:00 +8°C° 0 mm 7 mps 740 mmHg 81%
10:00 +9°C° 0 mm 7 mps 740 mmHg 76%
11:00 +10°C° 0 mm 8 mps 740 mmHg 73%
12:00 +11°C° 0 mm 8 mps 739 mmHg 70%
13:00 +12°C° 0 mm 8 mps 739 mmHg 66%
14:00 +11°C° 0 mm 8 mps 739 mmHg 68%
15:00 +11°C° 0 mm 8 mps 738 mmHg 69%
16:00 +10°C° 0 mm 8 mps 738 mmHg 70%
17:00 +10°C° 0 mm 7 mps 738 mmHg 73%
18:00 +9°C° 0 mm 7 mps 739 mmHg 76%
19:00 +9°C° 0 mm 7 mps 739 mmHg 78%
20:00 +9°C° 0 mm 7 mps 739 mmHg 79%
21:00 +9°C° 0 mm 7 mps 739 mmHg 80%
22:00 +9°C° 0 mm 6 mps 739 mmHg 81%
23:00 +9°C° 0 mm 6 mps 739 mmHg 82%

5 November, Thursday

Time Temperature Precipitation Wind Pressure Humidity
00:00 +9°C° 0 mm 6 mps 739 mmHg 83%
01:00 +9°C° 0 mm 6 mps 739 mmHg 84%
02:00 +8°C° 0 mm 6 mps 739 mmHg 86%
03:00 +8°C° 0 mm 6 mps 739 mmHg 88%
04:00 +8°C° 0 mm 6 mps 739 mmHg 90%
05:00 +7°C° 0 mm 5 mps 739 mmHg 91%
06:00 +7°C° 0 mm 5 mps 739 mmHg 92%
07:00 +7°C° 0 mm 5 mps 739 mmHg 94%
08:00 +8°C° 0 mm 5 mps 739 mmHg 89%
09:00 +9°C° 0 mm 5 mps 739 mmHg 84%
10:00 +10°C° 0 mm 6 mps 740 mmHg 79%
11:00 +12°C° 0 mm 5 mps 739 mmHg 76%
12:00 +14°C° 0 mm 5 mps 739 mmHg 72%
13:00 +15°C° 0 mm 5 mps 739 mmHg 69%
14:00 +14°C° 0 mm 5 mps 739 mmHg 72%
15:00 +14°C° 0 mm 5 mps 739 mmHg 74%
16:00 +13°C° 0 mm 5 mps 738 mmHg 77%
17:00 +12°C° 0 mm 5 mps 739 mmHg 80%
18:00 +12°C° 0 mm 4 mps 739 mmHg 83%
19:00 +11°C° 0 mm 4 mps 739 mmHg 86%
20:00 +10°C° 0 mm 4 mps 739 mmHg 87%
21:00 +10°C° 0 mm 4 mps 739 mmHg 87%
22:00 +10°C° 0 mm 4 mps 739 mmHg 88%
23:00 +10°C° 0 mm 4 mps 739 mmHg 89%
Show more

We Need Your Consent

Meteoprog and our Service Providers may store and access personal data such as cookies, device identifiers or other similar technologies on your device and process such data to personalise content and ads, as well as provide social media features and to analyse the traffic.

  • Store and/or access information on your device

    Cookies, device identifiers or other information can be stored or accessed on your device for the purposes indicated above.

  • Personalised ads and content, ad and content measurement, audience insights, and products development

    Ads and content can be personalised based on a profile. More data can be added to better personalise ads and content. Ad and content performance can be measured. Insights about the audience who saw the ads and content can be derived. Such data can be used to develop or improve user’s experience, systems and software.

By clicking ‘I Agree’ you will allow the use of indicated cookies, device identifiers, web beacons or other similar technologies. Your settings can be changed in the browser on your device.

For certain purposes, legitimate interests may be relied on, rather than consent. You can read more about this in our Privacy and Cookie Policy.